Vertical_Velocity
3 4 1 -4 -2 -1 -2 -2 1 0 0 -3 -3 -1 -2 -1 -1 1 -0 -5 -1 -3
1 2 -8 -1 1 -1 5 -2 -1 -1 -2 -3 -2 -3 -0 -2 -1 -0 -3 -4 -3 -2
3 1 5 5 3 -1 2 -4 2 -1 -2 -2 -3 -2 -1 -2 -1 -3 -5 -3 -1 -1
1 7 -1 4 -1 2 3 -0 -2 -3 -1 -2 -2 -0 -2 -2 -2 -6 -4 -2 -1 -1
7 2 4 -1 -8 4 6 -3 -1 -1 -0 -0 -1 -2 -0 -2 -3 -2 -2 -1 2 2
3 2 -1 2 -1 -16 7 -1 -2 -1 -0 -1 -2 0 -2 -3 -5 -3 1 2 0 1
0 0 -4 8 -5 -6 -1 2 -3 -2 -2 -2 -1 -1 -2 -6 -3 -1 1 1 -2 -3
8 4 1 -2 -4 8 -4 1 -3 -1 -2 -1 0 -5 -1 -2 0 3 -1 -4 -3 -1
2 1 1 -4 4 0 1 0 -1 -2 0 -1 -2 -3 -2 -1 -0 -1 -1 -2 -3 -2
4 0 -0 2 4 -2 0 -2 -1 2 0 -7 -3 -3 -2 1 0 -1 -4 -3 -4 -3
2 0 2 3 0 0 1 -2 5 -6 -4 -6 -2 -2 0 -1 -2 -1 -1 -2 1 1
-2 -1 0 2 2 4 -2 2 -11 -1 -3 0 -1 -2 -1 -1 0 -2 0 -2 -0 2
-3 -1 0 6 1 2 5 -13 1 -1 -1 -4 -1 -0 -0 -0 -0 -0 -4 -1 1 1
-2 -1 8 3 3 2 -11 -1 -2 -1 -1 -0 -1 -1 -1 -0 -2 -1 -2 0 -4 -4
Height
1478 1484 1487 1491 1496 1501 1505 1509 1511 1513 1515 1517 1518 1519 1519 1518 1518 1519 1518 1518 1518 1517
1472 1477 1482 1489 1494 1498 1502 1504 1507 1509 1511 1512 1514 1514 1514 1514 1515 1514 1514 1515 1515 1514
1467 1473 1479 1484 1488 1492 1496 1499 1503 1505 1507 1508 1509 1510 1510 1510 1510 1510 1511 1511 1510 1509
1465 1469 1474 1476 1483 1485 1492 1494 1498 1500 1502 1503 1505 1506 1506 1506 1506 1507 1507 1507 1507 1505
1460 1462 1468 1470 1479 1482 1487 1490 1493 1496 1498 1499 1500 1501 1501 1503 1504 1505 1504 1504 1503 1501
1453 1455 1461 1467 1471 1479 1481 1485 1488 1492 1494 1495 1496 1497 1498 1499 1500 1500 1500 1499 1498 1497
1445 1450 1456 1461 1466 1474 1476 1479 1483 1487 1489 1491 1493 1494 1495 1496 1497 1497 1497 1496 1495 1493
1440 1447 1451 1455 1463 1467 1472 1475 1479 1482 1485 1487 1488 1490 1492 1494 1494 1493 1492 1491 1490 1489
1436 1441 1445 1452 1458 1462 1467 1471 1474 1478 1481 1483 1485 1488 1490 1491 1490 1489 1488 1487 1486 1484
1431 1435 1441 1448 1453 1458 1462 1467 1470 1474 1478 1480 1483 1485 1486 1487 1486 1485 1484 1482 1480 1478
1426 1431 1438 1444 1449 1453 1458 1462 1465 1471 1474 1476 1479 1482 1483 1483 1483 1482 1481 1480 1478 1475
1421 1429 1435 1440 1444 1449 1453 1457 1463 1466 1470 1474 1476 1478 1480 1480 1479 1478 1478 1478 1475 1472
1418 1426 1432 1437 1440 1444 1449 1455 1460 1464 1467 1469 1472 1474 1475 1476 1476 1475 1475 1474 1470 1467
1416 1424 1431 1434 1436 1441 1447 1453 1457 1461 1464 1466 1469 1471 1472 1472 1472 1471 1470 1468 1466 1463